Location: Ferintosh
(52.7647°N, 112.9692°W)
Time: 22:46:25
(UTC+00:00)

A-11 Canister half - Pass Details

Date: 23 May 2024
Orbit: 1524 x 1683 km, 47.3° (Epoch: 19 June)

Event Time Altitude Azimuth Distance (km) Brightness Sun altitude
Rises 10:49:04 0° 285° (WNW) 4,789 11.3 -4.7°
Reaches altitude 10° 10:52:33 10° 276° (W) 3,826 10.7 -4.3°
Maximum altitude 11:00:41 31° 219° (SW) 2,566 9.7 -3.4°
Drops below altitude 10° 11:09:01 10° 162° (SSE) 3,911 10.9 -2.4°
Sets 11:12:39 0° 153° (SSE) 4,911 11.5 -2.0°
